Location: Al Mulaqqa?ah
(24.1833°N, 32.8833°E)
Time: 19:59:34
(UTC+00:00)

Hubble Space Telescope - Pass Details

Date: 26 September 2021
Orbit: 535 x 539 km, 28.5° (Epoch: 25 October)

Event Time Altitude Azimuth Distance (km) Brightness Sun altitude
Rises 16:02:58 0° 262° (W) 2,664 6.6 -5.9°
Reaches altitude 10° 16:07:08 10° 221° (SW) 1,772 4.0 -6.9°
Maximum altitude 16:07:55 10° 210° (SSW) 1,743 3.8 -7.1°
Drops below altitude 10° 16:08:42 10° 199° (SSW) 1,772 3.7 -7.2°
Sets 16:12:53 0° 158° (SSE) 2,660 4.1 -8.2°
